GW4019 Weather Reports


Display with metric or nautical units.
time (UTC)temp
F
wind
direction
speed
MPH
gust
MPH
rain 1hr
in
rain 24hr
in
rain mn
in
humidity
%
barometer
mb
20260506044552 57 0 0.0 0.0 0.00 0.01 0.01 86 1018.4
20260506043052 57 0 0.0 1.0 0.00 0.01 0.01 86 1018.2
20260506041555 57 0 0.0 0.0 0.00 0.01 0.01 85 1018.1
20260506040108 57 0 0.0 0.0 0.00 0.01 0.01 85 1017.9
20260506034553 57 0 0.0 1.0 0.00 0.01 0.01 85 1017.8
20260506033055 57 0 0.0 0.0 0.00 0.01 0.01 84 1017.7
20260506031553 57 0 0.0 0.0 0.00 0.01 0.01 84 1017.6
20260506024558 58 0 0.0 3.0 0.00 0.01 0.01 84 1017.2
20260506023052 58 0 0.0 0.0 0.00 0.01 0.01 84 1017.0
20260506021603 58 0 0.0 0.0 0.00 0.01 0.01 84 1016.9
20260506020051 59 0 0.0 0.0 0.00 0.01 0.01 84 1017.1
20260506014600 59 0 0.0 0.0 0.00 0.01 0.01 84 1017.1
20260506013054 59 0 0.0 1.0 0.00 0.01 0.01 83 1017.0
20260506011551 60 0 0.0 1.0 0.00 0.01 0.01 83 1017.1
20260506010103 60 0 0.0 3.0 0.00 0.01 0.01 83 1016.9
20260506004553 60 0 0.0 5.0 0.00 0.01 0.01 82 1016.9
20260506003052 60 0 0.0 2.0 0.00 0.01 0.01 82 1016.8
20260506001553 60 0 0.0 5.0 0.00 0.01 0.01 82 1016.7
20260506000059 60 311 1.0 7.0 0.00 0.01 0.01 81 1016.7
20260505234554 60 0 0.0 7.0 0.00 0.01 0.01 81 1016.7
20260505233112 60 307 2.0 5.0 0.00 0.01 0.01 81 1016.8
20260505231552 61 306 0.0 4.0 0.00 0.01 0.01 80 1017.0
20260505230054 61 286 2.0 7.0 0.00 0.01 0.01 80 1017.0
20260505224556 61 0 1.0 7.0 0.00 0.01 0.01 80 1016.9
20260505223055 61 319 1.0 7.0 0.00 0.01 0.01 81 1016.9
20260505221603 61 0 0.0 7.0 0.00 0.01 0.01 82 1016.9
20260505220054 61 0 1.0 5.0 0.00 0.01 0.01 81 1017.0
20260505214553 61 304 2.0 8.0 0.00 0.01 0.01 80 1017.0
20260505213054 62 296 1.0 7.0 0.00 0.01 0.01 80 1017.1
20260505211552 61 0 0.0 7.0 0.00 0.01 0.01 79 1017.2
20260505210058 62 300 3.0 7.0 0.00 0.01 0.01 78 1017.0
20260505204553 63 310 0.0 5.0 0.00 0.01 0.01 80 1017.0
20260505203056 62 300 1.0 7.0 0.00 0.01 0.01 81 1017.1
20260505201555 61 301 1.0 7.0 0.00 0.01 0.01 82 1017.0
20260505200055 61 306 1.0 5.0 0.00 0.01 0.01 85 1017.2
20260505194558 59 313 3.0 8.0 0.00 0.01 0.01 87 1017.2
20260505193110 59 317 2.0 7.0 0.00 0.01 0.01 87 1017.1
20260505191605 60 0 1.0 8.0 0.00 0.01 0.01 89 1017.2
20260505190056 58 297 3.0 5.0 0.00 0.01 0.01 91 1017.0
20260505184556 58 0 1.0 4.0 0.00 0.01 0.01 92 1017.0
20260505183054 58 0 1.0 3.0 0.00 0.01 0.01 93 1016.9
20260505181552 57 0 0.0 1.0 0.00 0.01 0.01 93 1016.9
20260505180056 56 123 0.0 2.0 0.00 0.01 0.01 93 1016.7
20260505174553 55 0 0.0 1.0 0.00 0.01 0.01 93 1016.7
20260505173054 55 0 0.0 2.0 0.00 0.01 0.01 93 1016.6
20260505171558 55 0 0.0 2.0 0.00 0.01 0.01 93 1016.4
20260505170054 54 0 0.0 2.0 0.00 0.01 0.01 93 1016.4
20260505164556 54 0 0.0 2.0 0.00 0.01 0.01 93 1016.4
20260505163058 54 0 0.0 3.0 0.01 0.01 0.01 92 1016.3
20260505161559 54 0 0.0 1.0 0.01 0.01 0.01 93 1016.2
20260505153102 53 0 0.0 0.0 0.00 0.00 0.00 93 1016.0
20260505151554 53 0 0.0 0.0 0.00 0.00 0.00 93 1015.9
20260505130116 52 0 0.0 0.0 0.00 0.00 0.00 92 1015.4
20260505124606 52 0 0.0 0.0 0.00 0.00 0.00 91 1015.3
20260505123115 52 0 0.0 1.0 0.00 0.00 0.00 91 1015.1
20260505121557 52 0 0.0 1.0 0.00 0.00 0.00 91 1015.1
20260505120113 52 0 0.0 0.0 0.00 0.00 0.00 91 1015.5
20260505114600 52 0 0.0 0.0 0.00 0.00 0.00 91 1015.6
20260505113102 52 0 0.0 0.0 0.00 0.00 0.00 91 1015.9
20260505111559 52 0 0.0 1.0 0.00 0.00 0.00 90 1015.6
20260505101604 52 0 0.0 2.0 0.00 0.00 0.00 89 1015.4
20260505100057 52 0 0.0 0.0 0.00 0.00 0.00 89 1015.5
20260505094555 52 0 0.0 0.0 0.00 0.00 0.00 89 1015.7
20260505093052 52 0 0.0 0.0 0.00 0.00 0.00 89 1015.7
20260505091617 52 0 0.0 1.0 0.00 0.00 0.00 88 1015.9
20260505090119 52 0 0.0 2.0 0.00 0.00 0.00 88 1016.1
20260505084611 52 0 0.0 2.0 0.00 0.00 0.00 88 1016.0
20260505083107 52 0 0.0 3.0 0.00 0.00 0.00 87 1015.9
20260505081603 53 0 0.0 2.0 0.00 0.00 0.00 86 1016.2
20260505080100 53 0 0.0 0.0 0.00 0.00 0.00 86 1016.4
20260505074559 53 0 0.0 0.0 0.00 0.00 0.00 85 1016.6
20260505073056 53 0 0.0 0.0 0.00 0.00 0.00 85 1016.6
20260505071613 53 344 1.0 3.0 0.00 0.00 0.00 85 1016.4
20260505070054 53 325 0.0 3.0 0.00 0.00 0.00 84 1016.4
20260505064610 54 352 1.0 4.0 0.00 0.00 0.00 83 1016.1
20260505063100 54 0 1.0 5.0 0.00 0.00 0.00 82 1015.9
20260505061604 54 321 1.0 4.0 0.00 0.00 0.00 80 1016.0
20260505060103 54 306 0.0 4.0 0.00 0.00 0.00 79 1015.9
20260505054554 54 329 0.0 3.0 0.00 0.00 0.00 79 1015.9
20260505053055 54 0 1.0 6.0 0.00 0.00 0.00 80 1016.1